Showing default

ICEYE-X72, 68504

Orbit data source: Space-Track

ICEYE-X72, 68504 is a payload satellite owned by ICEYE (FI) in SSO that was launched on Mon, 30 Mar 2026 UTC via an FALCON 9 launch vehicle from the Air Force Western Test Range (AFWTR). Payload-class satellites include a variety of spacecraft equipped with specific instruments for various scientific and technological missions. These include communications satellites like Starlink; space stations such as the ISS; scientific satellites like the Hubble; Earth observation satellites from companies like Planet Labs, Umbra, and HawkEye 360; GPS; miniature CubeSats for education and research; and military/defense satellites.

Loading next visibility...
Identifier
68504, 2026-067CS
Orbit
SSO
Country
Flag of FIFI / FIN
Related business
Manufacturer
ICEYE
Mission
Operational Commercial Radar Imaging
Bus & Motor
ICEYE, Unknown motor
Mass
120 kg wet, 120 kg dry
Launch date (UTC)
2026-03-30 (6 months ago)
Launch vehicle
FALCON 9
Launch site
Air Force Western Test Range (AFWTR)
Object type
Payload
Rocket body
Debris
Shape & HBR
Box + 1 Pan, 2.4 m
Radar Cross Section
0.776 m², Medium (>0.1 m² and < 1m²)

Expand to show TLE details & history
Last TLE update: 11 hours ago

TLE from 11 hours ago
0 ICEYE-X72
1 68504U 26067CS  26263.35294098  .00001851  00000-0  15883-3 0  9996
2 68504  97.7705 221.0270 0002750  51.9458 308.2013 14.98716835 25961
Epoch: 2026-09-20T08:28Z
TLE epoch observation values (Epoch: 2026-09-20T08:28:14.100Z)
Latitude
0.00003°
Longitude
94.7199°
Altitude
572.729 km
Speed
7.575 km/s
True Right ascension
14h 44m 06s
True Declination
0° 00' 00"
Sunlit
Object was in daylight at epoch
Visualization orbit readout
Latitude
Unknown
Longitude
Unknown
Altitude
Unknown
Speed
Unknown
Apparent Right ascension
Unknown
Apparent Declination
Unknown
Sunlit
N/A
Visualization observer readout
Local Sidereal Time
11:57:29
Azimuth
Unknown
Elevation
Unknown
Doppler factor
Unknown
Orbital elements
Apogee altitude
569.78 km
Perigee altitude
565.96 km
Semi-major axis
6,946.007 km
Eccentricity
0.00028
Inclination
97.7705°
RAAN
221.027°
Arg. of periapsis
51.9458°
True anomaly
308.17653°
Mean anomaly
308.2013°
Eccentric anomaly
308.18892°
Mean motion
3.74921 °/min
Orbital period
96.02 mins
BSTAR
0.00015883
Loading maneuver chart data...
Computing Atmospheric mass density...
Loading historical data...
Loading historical data...
Loading historical data...
Loading historical data...
Loading historical data...
Loading historical data...
Loading historical data...

Documentation

Showing up to 5 results
|